Location: Allens Landing
(37.8284°N, 89.7284°W)
Time: 17:24:43
(UTC+00:00)

Vanguard 2 - Pass Details

Date: 19 December 2025
Orbit: 552 x 2898 km, 32.9° (Epoch: 12 January)

Event Time Altitude Azimuth Distance (km) Brightness Sun altitude
Exits shadow 10:47:39 25° 161° (SSE) 1,124 8.6 -27.2°
Drops below altitude 10° 10:49:57 10° 132° (SE) 1,841 10.2 -26.8°
Sets 10:52:27 0° 121° (ESE) 2,831 11.5 -26.3°
